Orbital Elements at Epoch 2459200.5 (2020-Dec-17.0) TDB
Reference: JPL 27 (heliocentric ecliptic J2000)
Element | Value | Uncertainty (1-sigma) | Units |
e | .241715494673076 | 4.6448e-08 | |
a | 2.809491733167483 | 1.0285e-08 | au |
q | 2.130394049104987 | 1.2921e-07 | au |
i | 6.908078865947393 | 3.7984e-06 | deg |
node | 237.8717831465361 | 3.6773e-05 | deg |
peri | 127.6062860143462 | 3.7627e-05 | deg |
M | 93.72320836499787 | 6.6384e-06 | deg |
tp | 2458752.699358903283 (2019-Sep-26.19935890) | 3.1708e-05 | TDB |
period | 1720.04601215747 4.71 | 9.4454e-06 2.586e-08 | d yr |
n | .209296726631428 | 1.1493e-09 | deg/d |
Q | 3.488589417229978 | 1.2771e-08 | au |
|
| | Orbit Determination Parameters
Additional Information
|